{"data":{"norad_id":38992,"epoch":"2026-09-20T01:37:39.017280Z","epoch_age_seconds":59211,"freshness":"FRESH","line1":"1 38992U 12062B   26263.06781270  .00000126  00000+0  00000+0 0  9999","line2":"2 38992   0.0697   2.0276 0002912 174.0799 228.8719  1.00273061 50779","mean_motion":1.00273061,"eccentricity":0.0002912,"inclination_deg":0.0697,"raan_deg":2.0276,"arg_perigee_deg":174.0799,"mean_anomaly_deg":228.8719,"bstar":0,"rev_number":5077,"period_min":1436.078629334,"perigee_km":35773.958990081,"apogee_km":35798.515521647,"semimajor_km":42164.374255864,"source":"CELESTRAK","updated_at":"2026-09-20T09:00:35.178433Z"}}